Showing default

MICROSCOPE, 41457

Orbit data source: Space-Track

MICROSCOPE, 41457 is a payload satellite owned by CNES (FR) in SSO that was launched on Mon, 25 Apr 2016 UTC via a SOYUZ-ST-A launch vehicle from the French Guiana (FRGUI). Payload-class satellites include a variety of spacecraft equipped with specific instruments for various scientific and technological missions. These include communications satellites like Starlink; space stations such as the ISS; scientific satellites like the Hubble; Earth observation satellites from companies like Planet Labs, Umbra, and HawkEye 360; GPS; miniature CubeSats for education and research; and military/defense satellites.

Loading next visibility...
Identifier
41457, 2016-025B
Orbit
SSO
Country
Flag of FRFR
Related business
Manufacturer
ONERA/CNES
Mission
Non-operational Civil Science
Bus & Motor
MYRIADE, Unknown motor
Mass
303 kg wet, 303 kg dry
Launch date (UTC)
2016-04-25 (10 years ago)
Launch vehicle
SOYUZ-ST-A
Launch site
French Guiana (FRGUI)
Object type
Payload
Rocket body
Debris
Shape & HBR
Box + 2 Pan + 2 Rod, 1.6 m
Radar Cross Section
4.027 m², Large (>1 m²)

Expand to show TLE details & history
Last TLE update: 12 hours ago

TLE from 12 hours ago
0 MICROSCOPE
1 41457U 16025B   25341.27407245  .00002036  00000-0  44217-3 0  9993
2 41457  98.2500 350.1068 0001736  86.2355 273.9042 14.59148973510730
Epoch: 2025-12-07T06:34Z
TLE epoch observation values (Epoch: 2025-12-07T06:34:39.859Z)
Latitude
-0.00013°
Longitude
175.15093°
Altitude
698.822 km
Speed
7.507 km/s
True Right ascension
23h 20m 25s
True Declination
0° 00' 00"
Sunlit
Object was in daylight at epoch
Visualization orbit readout
Latitude
Unknown
Longitude
Unknown
Altitude
Unknown
Speed
Unknown
Apparent Right ascension
Unknown
Apparent Declination
Unknown
Sunlit
N/A
Visualization observer readout
Local Sidereal Time
16:23:01
Azimuth
Unknown
Elevation
Unknown
Doppler factor
Unknown
Orbital elements
Apogee altitude
694.235 km
Perigee altitude
691.78 km
Semi-major axis
7,071.145 km
Eccentricity
0.00017
Inclination
98.25°
RAAN
350.1068°
Arg. of periapsis
86.2355°
True anomaly
273.88435°
Mean anomaly
273.9042°
Eccentric anomaly
273.89428°
Mean motion
3.65013 °/min
Orbital period
98.63 mins
BSTAR
0.00044217
Loading maneuver chart data...
Computing Atmospheric mass density...
Loading historical data...
Loading historical data...
Loading historical data...
Loading historical data...
Loading historical data...
Loading historical data...
Loading historical data...

Documentation

Showing up to 5 results
|